N7QMJ Weather Reports


time (UTC)temp
C
wind
direction
speed
KPH
gust
KPH
rain 1hr
cm
rain 24hr
cm
rain mn
cm
humidity
%
barometer
mb
20260506114817 10 245 16.1 25.7 0.00 0.00 0.00 76 1017.2
20260506113649 10 262 9.7 25.7 0.00 0.00 0.00 75 1017.2
20260506113149 10 247 16.1 25.7 0.00 0.00 0.00 75 1017.2
20260506112650 10 250 17.7 25.7 0.00 0.00 0.00 75 1017.1
20260506112150 10 234 19.3 25.7 0.00 0.00 0.00 75 1017.0
20260506111701 10 233 9.7 24.1 0.00 0.00 0.00 75 1017.0
20260506111649 10 243 17.7 25.7 0.00 0.00 0.00 75 1017.0
20260506110648 10 233 12.9 25.7 0.00 0.00 0.00 75 1016.9
20260506110149 10 237 12.9 25.7 0.00 0.00 0.00 75 1016.9
20260506105648 10 254 11.3 24.1 0.00 0.00 0.00 75 1016.7
20260506105147 10 251 14.5 24.1 0.00 0.00 0.00 75 1016.6
20260506104649 10 237 14.5 27.4 0.00 0.00 0.00 76 1016.6
20260506104148 10 259 20.9 27.4 0.00 0.00 0.00 76 1016.5
20260506103657 10 234 11.3 27.4 0.00 0.00 0.00 77 1016.4
20260506103647 10 244 16.1 25.7 0.00 0.00 0.00 77 1016.3
20260506102646 10 244 16.1 27.4 0.00 0.00 0.00 77 1016.3
20260506102148 10 234 11.3 24.1 0.00 0.00 0.00 77 1016.2
20260506101147 10 233 14.5 27.4 0.00 0.00 0.00 76 1016.2
20260506100648 10 241 17.7 32.2 0.00 0.00 0.00 76 1016.0
20260506100147 10 258 20.9 32.2 0.00 0.00 0.00 76 1016.0
20260506095645 10 262 19.3 32.2 0.00 0.00 0.00 76 1016.0
20260506095147 10 269 16.1 32.2 0.00 0.00 0.00 75 1015.9
20260506094647 10 247 17.7 27.4 0.00 0.00 0.00 75 1015.8
20260506094146 11 244 20.9 29.0 0.00 0.00 0.00 75 1015.7
20260506093657 11 244 20.9 30.6 0.00 0.00 0.00 73 1015.7
20260506093645 11 248 19.3 29.0 0.00 0.00 0.00 74 1015.8
20260506093146 11 252 16.1 29.0 0.00 0.00 0.00 73 1015.7
20260506092144 11 240 16.1 30.6 0.00 0.00 0.00 72 1015.6
20260506091646 11 224 14.5 27.4 0.00 0.00 0.00 71 1015.5
20260506091158 12 230 11.3 29.0 0.00 0.00 0.00 69 1015.5
20260506091145 12 227 12.9 25.7 0.00 0.00 0.00 70 1015.6
20260506090145 12 271 17.7 29.0 0.00 0.00 0.00 68 1015.4
20260506085646 12 248 16.1 25.7 0.00 0.00 0.00 67 1015.4
20260506085145 12 228 12.9 24.1 0.00 0.00 0.00 66 1015.2
20260506084645 12 248 8.0 24.1 0.00 0.00 0.00 67 1015.2
20260506084145 12 228 6.4 24.1 0.00 0.00 0.00 67 1015.4
20260506083656 12 243 11.3 27.4 0.00 0.00 0.00 67 1015.4
20260506083644 12 245 14.5 27.4 0.00 0.00 0.00 67 1015.2
20260506082655 12 276 3.2 17.7 0.00 0.00 0.00 64 1015.2
20260506082645 12 247 19.3 25.7 0.00 0.00 0.00 66 1015.2
20260506082144 12 245 8.0 22.5 0.00 0.00 0.00 65 1015.2
20260506081145 12 248 3.2 17.7 0.00 0.00 0.00 63 1015.2
20260506080655 12 257 6.4 16.1 0.00 0.00 0.00 63 1015.0
20260506080645 12 292 1.6 6.4 0.00 0.00 0.00 64 1015.1
20260506073143 13 224 0.0 0.0 0.00 0.00 0.00 61 1015.0
20260506072643 13 309 0.0 0.0 0.00 0.00 0.00 59 1014.8
20260506072141 13 309 0.0 0.0 0.00 0.00 0.00 59 1014.8
20260506071642 13 6 0.0 0.0 0.00 0.00 0.00 58 1014.8
20260506071152 14 299 0.0 0.0 0.00 0.00 0.00 56 1014.5
20260506071141 13 299 0.0 0.0 0.00 0.00 0.00 58 1014.7
20260506070142 14 298 0.0 0.0 0.00 0.00 0.00 55 1014.5
20260506062142 15 293 9.7 22.5 0.00 0.00 0.00 51 1014.1
20260506061641 15 278 0.0 16.1 0.00 0.00 0.00 52 1014.0
20260506061141 15 272 4.8 16.1 0.00 0.00 0.00 51 1014.0
20260506060640 15 281 3.2 22.5 0.00 0.00 0.00 51 1013.8
20260506060153 15 271 9.7 24.1 0.00 0.00 0.00 51 1013.7
20260506060141 15 288 4.8 22.5 0.00 0.00 0.00 51 1013.8
20260506051138 15 288 4.8 20.9 0.00 0.05 0.00 52 1013.3
20260506050641 15 306 1.6 9.7 0.00 0.05 0.00 53 1013.3
20260506050138 15 296 0.0 9.7 0.00 0.05 0.00 53 1013.3
20260506044138 15 278 0.0 20.9 0.00 0.10 0.00 51 1012.9
20260506043638 15 289 1.6 20.9 0.00 0.10 0.00 51 1012.9
20260506043139 15 271 1.6 6.4 0.00 0.10 0.00 52 1012.8
20260506042651 16 289 0.0 0.0 0.00 0.13 0.00 51 1012.9
20260506042639 15 290 0.0 6.4 0.00 0.13 0.00 53 1012.8
20260506042137 16 281 0.0 6.4 0.00 0.13 0.00 52 1012.9
20260506041805 16 290 0.0 1.6 0.00 0.13 0.00 52 1012.7
20260506040637 16 289 0.0 16.1 0.00 0.13 0.00 52 1012.6
20260506040138 16 268 0.0 16.1 0.00 0.13 0.00 53 1012.4
20260506035637 16 252 3.2 16.1 0.00 0.15 0.00 52 1012.3
20260506035137 16 252 11.3 16.1 0.00 0.15 0.00 53 1012.3
20260506034639 16 251 3.2 24.1 0.00 0.18 0.00 53 1012.2
20260506034137 16 275 6.4 24.1 0.00 0.20 0.00 53 1012.1
20260506033637 16 255 12.9 19.3 0.00 0.23 0.00 53 1011.9
20260506033138 16 271 11.3 19.3 0.00 0.23 0.00 55 1011.9
20260506032638 16 258 3.2 9.7 0.00 0.23 0.00 55 1011.7
20260506032137 16 262 0.0 9.7 0.00 0.23 0.00 55 1011.7
20260506031635 16 271 0.0 9.7 0.00 0.23 0.00 57 1011.6
20260506031148 16 255 0.0 16.1 0.00 0.23 0.00 57 1011.4
20260506031135 16 268 0.0 3.2 0.00 0.23 0.00 58 1011.5
20260506030147 16 272 6.4 16.1 0.00 0.23 0.00 55 1011.3
20260506030136 16 257 0.0 16.1 0.00 0.23 0.00 56 1011.3
20260506025136 16 278 0.0 14.5 0.00 0.23 0.00 55 1011.3
20260506024636 17 264 0.0 19.3 0.00 0.23 0.00 54 1011.3
20260506024135 17 265 9.7 19.3 0.00 0.23 0.00 53 1011.2
20260506023635 17 250 3.2 16.1 0.00 0.23 0.00 52 1011.2
20260506023146 18 235 8.0 22.5 0.00 0.23 0.00 52 1011.2
20260506023135 18 258 8.0 17.7 0.00 0.23 0.00 52 1011.0
20260506022135 18 243 11.3 22.5 0.00 0.23 0.00 50 1010.9
20260506021636 19 250 11.3 17.7 0.00 0.25 0.00 49 1011.0
20260506021135 19 274 6.4 17.7 0.00 0.28 0.00 46 1010.9
20260506020633 19 265 6.4 19.3 0.00 0.30 0.00 45 1010.7
20260506020134 20 266 1.6 19.3 0.00 0.33 0.00 45 1010.7
20260506015633 20 269 4.8 14.5 0.00 0.38 0.00 44 1010.7
20260506015135 20 307 0.0 9.7 0.00 0.43 0.00 42 1010.8
20260506014634 20 289 0.0 19.3 0.00 0.48 0.00 41 1010.7
20260506014134 20 298 0.0 19.3 0.00 0.51 0.00 42 1010.6
20260506013635 20 288 3.2 9.7 0.00 0.61 0.00 41 1010.6
20260506013134 20 289 3.2 11.3 0.00 0.66 0.00 41 1010.7
20260506012634 20 312 1.6 11.3 0.00 0.74 0.00 41 1010.7
20260506012146 20 337 0.0 8.0 0.00 0.76 0.00 40 1010.7
20260506012133 20 290 0.0 8.0 0.00 0.76 0.00 39 1010.7
20260506011758 20 300 0.0 0.0 0.00 0.76 0.00 41 1010.7
20260506010643 20 293 0.0 0.0 0.00 0.79 0.00 42 1010.7
20260506010632 20 155 0.0 0.0 0.00 0.79 0.00 42 1010.7
20260506005633 19 293 0.0 0.0 0.00 0.79 0.00 43 1010.8
20260506005133 19 337 0.0 0.0 0.00 0.79 0.00 42 1010.7
20260506004633 20 345 0.0 0.0 0.00 0.79 0.00 41 1010.7
20260506004134 20 337 0.0 0.0 0.00 0.79 0.00 39 1010.7
20260506003633 20 305 0.0 0.0 0.00 0.79 0.00 38 1010.7
20260506003132 21 319 0.0 0.0 0.00 0.79 0.00 36 1010.7
20260506002633 21 323 0.0 0.0 0.00 0.79 0.00 37 1010.6
20260506002143 21 49 0.0 0.0 0.00 0.79 0.00 37 1010.7
20260506002133 21 78 0.0 0.0 0.00 0.79 0.00 37 1010.7
20260506001130 21 286 0.0 0.0 0.00 0.79 0.00 38 1010.6
20260506000630 21 58 0.0 0.0 0.00 0.79 0.00 38 1010.7
20260506000133 21 85 0.0 0.0 0.00 0.79 0.00 40 1010.6
20260505235630 21 42 0.0 0.0 0.00 0.79 0.00 41 1010.6
20260505235130 21 69 0.0 0.0 0.00 0.79 0.00 38 1010.8
20260505234631 21 111 0.0 0.0 0.00 0.79 0.00 41 1010.7
20260505234142 21 111 0.0 0.0 0.00 0.79 0.00 40 1010.8
20260505234131 21 123 0.0 0.0 0.00 0.79 0.00 40 1010.7
20260505233131 21 107 0.0 0.0 0.00 0.79 0.00 40 1010.8
20260505232630 21 65 0.0 0.0 0.00 0.79 0.00 41 1010.8
20260505232141 21 158 0.0 0.0 0.00 0.79 0.00 39 1010.8
20260505232130 21 0 0.0 0.0 0.00 0.79 0.00 39 1010.8
20260505231131 21 138 0.0 0.0 0.00 0.79 0.00 41 1010.8
20260505230642 21 165 0.0 1.6 0.00 0.79 0.00 42 1010.8
20260505230630 21 264 0.0 0.0 0.00 0.79 0.00 40 1010.8
20260505225630 21 159 0.0 1.6 0.00 0.79 0.00 42 1010.9
20260505225129 21 159 0.0 0.0 0.00 0.79 0.00 43 1010.9
20260505224630 21 166 0.0 0.0 0.00 0.79 0.00 42 1011.0
20260505224130 21 147 0.0 0.0 0.00 0.79 0.00 42 1011.0
20260505223629 20 299 0.0 0.0 0.00 0.79 0.00 43 1011.2
20260505223129 20 313 0.0 0.0 0.00 0.79 0.00 44 1011.2
20260505222628 20 295 0.0 0.0 0.00 0.89 0.00 43 1011.2
20260505222130 20 293 0.0 0.0 0.00 0.97 0.00 46 1011.3
20260505221628 20 196 0.0 0.0 0.00 1.14 0.00 45 1011.3
20260505221127 20 169 0.0 0.0 0.00 1.14 0.00 48 1011.4
20260505220628 20 209 0.0 0.0 0.00 1.14 0.00 47 1011.4
20260505220130 20 195 0.0 1.6 0.00 1.14 0.00 44 1011.5
20260505215629 20 202 0.0 1.6 0.00 1.19 0.00 44 1011.6
20260505215128 20 200 0.0 1.6 0.00 1.24 0.00 45 1011.6
20260505214639 20 83 0.0 3.2 0.00 1.24 0.00 46 1011.7
20260505214628 20 120 0.0 3.2 0.00 1.24 0.00 45 1011.6
20260505214254 20 158 0.0 1.6 0.00 1.24 0.00 45 1011.7
20260505213126 20 80 0.0 1.6 0.00 1.24 0.00 46 1011.7
20260505212627 20 140 0.0 1.6 0.00 1.24 0.00 48 1011.7
20260505212128 20 90 0.0 3.2 0.00 1.24 0.00 47 1011.7
20260505211626 20 206 0.0 3.2 0.00 1.24 0.00 49 1011.7
20260505211127 19 128 0.0 0.0 0.00 1.24 0.00 49 1011.7
20260505210628 19 152 0.0 0.0 0.00 1.24 0.00 50 1011.9
20260505210137 18 227 0.0 0.0 0.00 1.24 0.00 52 1011.9
20260505210125 19 159 0.0 0.0 0.00 1.24 0.00 52 1011.9
20260505205128 18 257 0.0 0.0 0.00 1.24 0.00 54 1011.9
20260505204628 17 257 0.0 0.0 0.00 1.24 0.00 54 1012.0
20260505204126 17 224 0.0 0.0 0.00 1.24 0.00 54 1012.0
20260505203626 17 358 0.0 0.0 0.00 1.24 0.00 54 1012.1
20260505203127 17 358 0.0 0.0 0.00 1.24 0.00 55 1012.2
20260505202624 18 27 0.0 0.0 0.00 1.24 0.00 55 1012.2
20260505202124 18 25 0.0 0.0 0.00 1.24 0.00 55 1012.1
20260505201625 18 0 0.0 0.0 0.00 1.24 0.00 55 1012.2
20260505201133 17 240 0.0 0.0 0.00 1.24 0.00 53 1012.2
20260505201124 17 0 0.0 0.0 0.00 1.24 0.00 53 1012.1
20260505200739 17 240 0.0 0.0 0.00 1.24 0.00 53 1012.2
20260505195624 17 244 0.0 0.0 0.00 1.24 0.00 55 1012.2
20260505195123 17 245 0.0 0.0 0.00 1.24 0.00 55 1012.4
20260505194625 17 0.0 0.0 0.00 1.24 0.00 59 1012.3
20260505194132 16 221 0.0 0.0 0.00 1.24 0.00 62 1012.3
20260505194124 16 0.0 0.0 0.00 1.24 0.00 62 1012.3
20260505193121 16 221 0.0 0.0 0.00 1.24 0.00 62 1012.4
20260505192625 16 0.0 0.0 0.00 1.24 0.00 62 1012.3
20260505192123 16 233 0.0 0.0 0.00 1.24 0.00 62 1012.4
20260505191622 16 233 0.0 8.0 0.00 1.24 0.00 60 1012.3
20260505191121 16 257 0.0 8.0 0.00 1.24 0.00 60 1012.4
20260505190620 16 228 0.0 8.0 0.00 1.24 0.00 65 1012.3
20260505190121 16 159 0.0 6.4 0.00 1.24 0.00 66 1012.3
20260505185621 15 252 0.0 6.4 0.00 1.24 0.00 67 1012.3
20260505185120 15 240 1.6 6.4 0.00 1.24 0.00 66 1012.3
20260505184619 14 243 0.0 0.0 0.00 1.24 0.00 71 1012.3
20260505184120 14 274 0.0 6.4 0.00 1.24 0.00 68 1012.4
20260505183619 14 250 1.6 8.0 0.00 1.24 0.00 69 1012.3
20260505183121 14 231 0.0 8.0 0.00 1.24 0.00 68 1012.2
20260505182619 14 238 0.0 8.0 0.00 1.24 0.00 68 1012.3
20260505182119 13 254 1.6 11.3 0.00 1.24 0.00 70 1012.3
20260505181621 13 231 3.2 11.3 0.00 1.24 0.00 68 1012.3
20260505181120 13 217 0.0 9.7 0.00 1.24 0.00 70 1012.2
20260505180620 13 251 0.0 9.7 0.00 1.24 0.00 69 1012.2
20260505180133 13 264 1.6 16.1 0.00 1.24 0.00 74 1012.2
20260505180121 14 233 0.0 11.3 0.00 1.24 0.00 70 1012.2
20260505175620 14 240 3.2 11.3 0.00 1.24 0.00 72 1012.2
20260505174619 13 251 4.8 16.1 0.00 1.24 0.00 74 1012.0
20260505174120 12 248 0.0 16.1 0.00 1.24 0.00 75 1012.1
20260505173618 12 237 4.8 16.1 0.00 1.24 0.00 78 1012.0
20260505173118 12 228 4.8 14.5 0.00 1.24 0.00 77 1011.9
20260505172619 11 240 3.2 14.5 0.00 1.24 0.00 78 1011.9
20260505172118 11 220 8.0 16.1 0.00 1.24 0.00 79 1011.9
20260505171617 11 255 4.8 16.1 0.00 1.24 0.00 79 1011.9
20260505171119 11 234 3.2 14.5 0.00 1.24 0.00 79 1012.0
20260505170617 11 0 6.4 14.5 0.00 1.24 0.00 78 1012.0
20260505170118 11 275 0.0 16.1 0.00 1.24 0.00 78 1012.0
20260505165617 11 231 6.4 19.3 0.00 1.24 0.00 79 1011.9
20260505165116 11 238 4.8 19.3 0.00 1.24 0.00 81 1011.9
20260505164627 10 245 6.4 16.1 0.00 1.24 0.00 82 1011.7
20260505164617 11 259 1.6 16.1 0.00 1.24 0.00 79 1011.9
20260505164245 10 259 6.4 16.1 0.00 1.24 0.00 82 1011.9
20260505163118 10 281 6.4 19.3 0.00 1.24 0.00 83 1011.9
20260505162617 10 274 4.8 20.9 0.00 1.24 0.00 84 1011.7
20260505162116 10 230 8.0 20.9 0.00 1.24 0.00 84 1011.7
20260505161615 10 241 4.8 16.1 0.00 1.24 0.00 84 1011.7
20260505161116 10 266 8.0 19.3 0.00 1.24 0.00 85 1011.6
20260505160616 9 238 3.2 19.3 0.00 1.24 0.00 85 1011.6
20260505160116 9 257 3.2 17.7 0.00 1.24 0.00 86 1011.5
20260505153118 8 233 0.0 17.7 0.00 1.24 0.00 88 1011.3
20260505152615 8 250 3.2 20.9 0.00 1.24 0.00 88 1011.2
20260505152116 8 244 14.5 20.9 0.00 1.24 0.00 88 1011.2
20260505151616 7 238 3.2 17.7 0.00 1.24 0.00 88 1011.2
20260505151116 7 264 3.2 19.3 0.00 1.24 0.00 88 1011.2
20260505150615 7 241 6.4 19.3 0.00 1.24 0.00 88 1011.2
20260505150116 7 274 8.0 19.3 0.00 1.24 0.00 88 1011.0
20260505140618 7 268 8.0 22.5 0.00 1.24 0.00 89 1010.3
20260505140114 7 250 12.9 20.9 0.00 1.24 0.00 89 1010.3
20260505130112 6 261 12.9 25.7 0.00 1.24 0.00 88 1009.6
20260505124622 6 230 12.9 25.7 0.00 1.24 0.00 88 1009.6
20260505124611 6 231 12.9 25.7 0.00 1.24 0.00 88 1009.6
20260505123609 6 264 16.1 25.7 0.00 1.24 0.00 88 1009.5
20260505123121 6 252 12.9 20.9 0.00 1.24 0.00 89 1009.5
20260505123110 6 261 16.1 25.7 0.00 1.24 0.00 89 1009.6
20260505122113 6 247 11.3 19.3 0.00 1.24 0.00 89 1009.6
20260505121613 6 252 9.7 19.3 0.00 1.24 0.00 89 1009.6
20260505121110 6 258 12.9 19.3 0.00 1.24 0.00 89 1009.6
20260505120610 6 247 9.7 22.5 0.00 1.24 0.00 89 1009.6
20260505120112 6 252 14.5 24.1 0.00 1.24 0.00 89 1009.6
20260505115611 6 238 14.5 25.7 0.00 1.24 0.00 89 1009.5
20260505115110 6 258 14.5 25.7 0.00 1.24 0.00 89 1009.5